Location: St. Louis
(38.6270°N, 90.1994°W)
Time: 00:15:39
(UTC-06:00)

Vanguard 2 - Pass Details

Date: 04 December 2021
Orbit: 553 x 2936 km, 32.9° (Epoch: 16 January)

Event Time Altitude Azimuth Distance (km) Brightness Sun altitude
Rises 16:10:39 0° 268° (W) 3,353 12.0 4.0°
Reaches altitude 10° 16:12:48 10° 262° (W) 2,621 11.7 3.6°
Maximum altitude 16:18:53 49° 188° (S) 1,577 9.6 2.6°
Drops below altitude 10° 16:28:56 10° 118° (ESE) 4,255 11.0 1.0°
Sets 16:33:22 0° 114° (ESE) 5,647 11.6 0.2°
